カタログに戻る

DMSP 5D-2 F13 DEB

運用中SSO
NORAD 40558·DEBRIS·🇺🇸 United States

打ち上げ Mar 24, 1995 から Vandenberg Space Force Base

Loading…

次のパス (今後24時間)

TLE

最新Source: Space-Track

元期: Sep 14, 2026, 11:09 UTC

1 40558U 95015DR  26257.46463820  .00002178  00000-0  93750-3 0  9992
2 40558  98.9679 253.7008 0042502 162.1951 198.0728 14.25207407589262

AllMySatでDMSP 5D-2 F13 DEBをリアルタイム追跡

Download on the App Store